OpenBCM V1.13 (Linux)

Packet Radio Mailbox

DB0FHN

[JN59NK Nuernberg]

 Login: GUEST





  
I0OJJ  > KEPS     05.01.25 05:52l 352 Lines 16749 Bytes #999 (0) @ AMSAT
BID : ORB25005.1
Read: DJ6UX GUEST
Subj: 2Line Orbital Elements 25005.AMSAT
Path: DB0FHN<DB0FFL<OE5XBL<OE6XPE<DB0ERF<IZ3LSV<I0OJJ
Sent: 250105/0340z @:I0OJJ.ITA.EU [Rome] obcm1.08-6-g5b69
From: I0OJJ @ I0OJJ.ITA.EU (Gustavo)
To:   KEPS @ AMSAT
X-Info: This message was generated automatically


QST de W1STR

AMSAT Orbital Elements for Amateur Satellites in TLE Format
From Orbital Analysis Office
New England Sci-Tech STEM Education Center
Natick, MA January 05, 2025
To all radio amateurs


These element sets describe the orbits of various satellites 
in use by the amateur radio community. For details see:
www.amsat.org/keplerian-elements-formats/

A daily update of element sets is available at:
www.amsat.org/tle/daily-bulletin.txt
or without bulletin text:
www.amsat.org/tle/dailytle.txt


AO-07
1 07530U 74089B   25004.74455709 -.00000036  00000-0  64774-4 0  9997
2 07530 101.9907   7.3677 0012373  60.0206 113.6300 12.53684554294534
UO-11
1 14781U 84021B   25004.48968091  .00002805  00000-0  30818-3 0  9990
2 14781  97.7339 334.2571 0009112 125.3614 234.8455 14.88412080199412
AO-27
1 22825U 93061C   25004.61699532  .00000385  00000-0  16458-3 0  9993
2 22825  98.7619  65.2251 0007996 203.3211 156.7610 14.30699493631414
FO-29
1 24278U 96046B   25004.45210498  .00000115  00000-0  15222-3 0  9994
2 24278  98.5889 278.7733 0350447  27.1326 334.7659 13.53229438401656
NOAA-15
1 25338U 98030A   25004.79210558  .00000436  00000-0  19713-3 0  9996
2 25338  98.5514  33.5568 0011345  95.1342 265.1134 14.26847173386184
GO-32
1 25397U 98043D   25004.73576264  .00000310  00000-0  15444-3 0  9996
2 25397  98.9508 340.7784 0000677 348.7854  11.3309 14.24227404376327
ISS
1 25544U 98067A   25004.80873696  .00020946  00000-0  36400-3 0  9995
2 25544  51.6383  36.3872 0006226  43.2130 316.9347 15.50756894489820
NO-44
1 26931U 01043C   25004.50941698  .00000766  00000-0  31877-3 0  9990
2 26931  67.0496 171.3163 0006386 260.6919  99.3460 14.31568520214769
SO-50
1 27607U 02058C   25004.32088583  .00004332  00000-0  57334-3 0  9992
2 27607  64.5564 322.5431 0037392  15.7562 344.4697 14.80682364186086
CO-55
1 27844U 03031E   25004.82076100  .00000971  00000-0  44399-3 0  9996
2 27844  98.6778  15.1138 0008652 281.2331  78.7875 14.23746699116508
CO-57
1 27848U 03031J   25004.76844993  .00000816  00000-0  38089-3 0  9993
2 27848  98.6806  15.1813 0008652 300.0499  59.9821 14.23117855116259
RS-22
1 27939U 03042A   25004.81006392  .00002633  00000-0  43192-3 0  9995
2 27939  98.3091 170.7276 0012288 139.0774 328.0331 14.71526032137916
NOAA-18
1 28654U 05018A   25004.75712296  .00000483  00000-0  28002-3 0  9999
2 28654  98.8582  85.9124 0013879 208.2688 151.7733 14.13476343 11733
CO-58
1 28895U 05043F   25004.35455759  .00004461  00000-0  75350-3 0  9996
2 28895  98.2254 147.1100 0015985  82.4596 277.8424 14.69837698 23987
CO-65
1 32785U 08021C   25004.55791984  .00009549  00000-0  74376-3 0  9992
2 32785  97.7705 335.1014 0011202  41.6724 318.5352 15.01386756905642
AAUSAT2
1 32788U 08021F   25004.45127433  .00081856  00000-0  20050-2 0  9996
2 32788  97.6055 354.2841 0004968 127.1302 233.0398 15.40435491909138
CO-66
1 32791U 08021J   25003.91065302  .00018543  00000-0  10746-2 0  9990
2 32791  97.7134 341.3512 0005014  16.2299 343.9090 15.12235199906767
RS-30
1 32953U 08025A   25004.83541395  .00000046  00000-0  26056-3 0  9998
2 32953  82.5050 324.0591 0020285  27.7210 332.4946 12.43156514754182
PRISM
1 33493U 09002B   25004.45312987  .00099013  00000-0  21086-2 0  9994
2 33493  98.1717  78.3289 0007561 271.1628  88.8752 15.44543633869807
NOAA-19
1 33591U 09005A   25004.88002234  .00000560  00000-0  32285-3 0  9997
2 33591  99.0214  68.5635 0014675  84.4442 275.8403 14.13251363820110
SRMSAT
1 37841U 11058D   25004.43978535  .00000750  00000-0  26439-3 0  9992
2 37841  19.9735  19.3487 0011896 146.6857   4.6473 14.11329306683026
RS-40
1 38735U 12041C   25004.54470378  .00000022  00000-0  86177-4 0  9990
2 38735  82.4752  44.3240 0018340 138.1816 222.0669 12.42623331564185
ZACUBE-1
1 39417U 13066B   25004.60794417  .00008272  00000-0  76897-3 0  9998
2 39417  97.7609 322.9581 0045486 210.7449 149.1105 14.93814655601608
Delfi-N3xt
1 39428U 13066N   25004.74001229  .00009410  00000-0  10437-2 0  9999
2 39428  97.8383 284.5496 0091334 151.2916 209.3371 14.84435395596101
GOMX-1
1 39430U 13066Q   25004.57536032  .00004865  00000-0  77658-3 0  9996
2 39430  97.7020 232.7184 0134791 331.8796  27.5173 14.66392025592532
LO-74
1 39440U 13066AA  25004.82089088  .00008256  00000-0  88345-3 0  9992
2 39440  97.8348 310.8898 0064473 334.9654  24.8439 14.87438776599464
AO-73
1 39444U 13066AE  25004.15947345  .00011141  00000-0  92617-3 0  9995
2 39444  97.7453 326.3494 0042755 187.7303 172.3265 14.98165263600135
DTUSAT-2
1 40030U 14033W   25004.59724669  .00011393  00000-0  82139-3 0  9990
2 40030  98.0363 329.5189 0008519 220.2249 139.8346 15.04296984572915
EO-80
1 40032U 14033Y   25004.35997091  .00013643  00000-0  98036-3 0  9990
2 40032  98.0276 329.1357 0009640 154.7092 205.4607 15.04366102572859
XW-2C
1 40906U 15049H   25004.80432350  .00220972  00000-0  12306-2 0  9990
2 40906  97.4496  36.5920 0001351 294.5725  65.5401 15.78834598515818
LILACSAT-2
1 40908U 15049K   25004.87846461  .00019705  00000-0  60939-3 0  9997
2 40908  97.5181  21.9690 0010861   8.3691 351.7730 15.33482832514324
IO-86
1 40931U 15052B   24337.09180034  .00002217  00000-0  20975-3 0  9992
2 40931   5.9986 232.5457 0013173 302.5393  57.3463 14.78392648496340
ChubuSat-2
1 41338U 16012B   25004.78005075  .00008968  00000-0  49211-3 0  9993
2 41338  30.9980 169.1725 0010385 103.5138 256.6658 15.12793172488106
ChubuSat-3
1 41339U 16012C   25004.83149178  .00008525  00000-0  48216-3 0  9996
2 41339  31.0044 169.0393 0010551 106.1898 253.9902 15.11699012488072
Horyu-4
1 41340U 16012D   25004.58684839  .00026979  00000-0  97738-3 0  9994
2 41340  30.9988  93.4761 0006985 227.0250 132.9807 15.27170622488842
Lapan A3
1 41603U 16040E   25004.80799167  .00005183  00000-0  19191-3 0  9994
2 41603  97.1390  15.7128 0013350 102.6843 257.5890 15.27994633473981
Pratham
1 41783U 16059A   25004.50068174  .00002195  00000-0  40686-3 0  9990
2 41783  97.8284  20.4182 0033426 100.9512 259.5456 14.65862576442024
CAS-2T
1 41847U 16066G   25004.33402032  .00002661  00000-0  39247-3 0  9994
2 41847  98.4391  80.1079 0347947 290.9288  65.4991 14.42653583428488
CAS-4B
1 42759U 17034B   25004.80402713  .00038051  00000-0  82766-3 0  9997
2 42759  43.0119 155.7638 0016593 284.8358  75.0662 15.43514710418385
CAS-4A
1 42761U 17034D   25004.78005108  .00038402  00000-0  82470-3 0  9996
2 42761  43.0155 153.9826 0017498 291.8542  68.0455 15.43871531418395
D-SAT
1 42794U 17036AF  25004.21786861  .00011098  00000-0  67644-3 0  9992
2 42794  97.4996 345.5949 0099869 182.6705 177.4003 15.06375949410928
TechnoSat
1 42829U 17042E   25004.43503869  .00007970  00000-0  64714-3 0  9996
2 42829  97.3894 180.7550 0014500 107.3003 252.9809 14.99790063407304
AO-91
1 43017U 17073E   25004.58052501  .00015836  00000-0  86932-3 0  9994
2 43017  97.5470 239.4775 0188472 337.4438  21.8579 15.00234417385788
S-Net D
1 43186U 18014G   25004.29719857  .00009330  00000-0  59326-3 0  9998
2 43186  97.5748 268.9702 0011162  47.6575 312.5597 15.08983244378782
S-Net B
1 43187U 18014H   25004.43347828  .00009436  00000-0  60003-3 0  9991
2 43187  97.5758 269.0682 0011826  42.7192 317.4954 15.08972162378802
S-Net A
1 43188U 18014J   25004.23174727  .00009699  00000-0  61643-3 0  9998
2 43188  97.5763 269.0002 0011741  43.9573 316.2587 15.08985565378773
S-Net C
1 43189U 18014K   25004.43556069  .00009708  00000-0  61700-3 0  9999
2 43189  97.5782 269.1886 0013192  36.1158 324.0959 15.08970438377357
Ten-Koh
1 43677U 18084G   25004.41841398  .00006140  00000-0  51151-3 0  9994
2 43677  98.0840 170.5904 0015158  69.0149 291.2693 14.98934767336836
PO-101
1 43678U 18084H   25004.85513003  .00004078  00000-0  35934-3 0  9991
2 43678  98.0875 175.2922 0009528  83.7158 276.5147 14.97021944337074
QO-100
1 43700U 18090A   25004.53783689  .00000158  00000-0  00000-0 0  9996
2 43700   0.0151  67.3605 0002583 258.2559 358.1854  1.00271722 22374
MinXSS-2
1 43758U 18099A   25004.79606852  .00019919  00000-0  97067-3 0  9999
2 43758  97.5264  70.9670 0013633 347.0357  13.0524 15.18293913333271
AO-95
1 43770U 18099N   25004.11748434  .00013925  00000-0  80116-3 0  9990
2 43770  97.5170  64.2351 0012698  39.2032 321.0116 15.12499241332862
RANGE-B
1 43772U 18099Q   25004.60618928  .00028154  00000-0  12681-2 0  9991
2 43772  97.4966  69.4482 0003487 293.6209  66.4660 15.21019762333216
RANGE-A
1 43773U 18099R   25004.59162776  .00008052  00000-0  54784-3 0  9991
2 43773  97.4740  57.5682 0012369  15.5694 344.5911 15.06510489332713
MOVE-II
1 43780U 18099Y   25004.62786653  .00051970  00000-0  14669-2 0  9993
2 43780  97.4911  73.9613 0004526 359.5591   0.5648 15.36199952333617
SNUSat 2
1 43782U 18099AA  25004.43556468  .00013803  00000-0  83609-3 0  9997
2 43782  97.4858  62.4805 0012591 339.0004  21.0707 15.10639951332891
SnugLite
1 43784U 18099AC  25004.04678720  .00014172  00000-0  81053-3 0  9993
2 43784  97.4659  61.4335 0003713 359.0966   1.0258 15.12769182332930
ITASat 1
1 43786U 18099AE  25004.42789117  .00012271  00000-0  76663-3 0  9999
2 43786  97.4827  62.3812 0016214  29.1554 331.0577 15.09494484332876
EAGLET 1
1 43790U 18099AJ  25004.14949334  .00007250  00000-0  49133-3 0  9995
2 43790  97.5022  62.4655 0013046  13.2441 346.9126 15.06686833332495
ESEO
1 43792U 18099AL  25004.72382467  .00003046  00000-0  23960-3 0  9998
2 43792  97.4770  58.2480 0007438 336.3408  23.7474 15.01543025332424
CSIM
1 43793U 18099AM  25004.60994618  .00058152  00000-0  16554-2 0  9991
2 43793  97.5077  75.8352 0008051 327.3692  32.7053 15.35882124333456
